Location: Coffee Creek Observatory
(38.8077°N, 94.7179°W)
Time: 09:29:54
(UTC-05:00)

Daily predictions for brighter satellites

Satellite Brightness Start Highest point End
(mag) Time Altitude Azimuth Time Altitude Azimuth Time Altitude Azimuth
Cosmos 2219 3.8 21:08:48 10° S 21:13:58 36° ESE 21:19:10 10° NE
Cosmos 1441 Rocket 3.3 21:14:41 10° S 21:18:27 81° W 21:22:13 10° N
DELTA 2 R/B (1) 3.7 21:17:11 10° W 21:22:44 72° SSW 21:28:15 10° ESE
Cosmos 2322 Rocket 3.1 21:17:46 10° NW 21:23:10 48° WSW 21:28:31 10° S
Cosmos 2322 3.9 21:18:46 10° NNW 21:24:26 59° ENE 21:30:02 10° SE
Cosmos 1743 Rocket 4.4 21:21:24 10° SSW 21:25:47 55° W 21:30:10 10° N
FENGYUN 3A 4.4 21:22:21 10° S 21:27:38 54° W 21:32:58 10° NNW
Cosmos 1500 Rocket 3.9 21:26:39 10° SSW 21:31:00 73° W 21:35:25 10° N
Cosmos 2360 Rocket 2.3 21:25:49 10° NNW 21:31:29 69° ENE 21:37:07 10° SSE
Cosmos 405 3.1 21:30:11 10° N 21:33:48 66° E 21:37:22 10° SSE
SL-16 R/B 3.4 21:30:09 10° NW 21:35:25 41° WSW 21:40:41 10° S
CZ-4 DEB 4.4 21:36:06 10° SSW 21:39:03 34° W 21:42:02 10° NNW
Cosmos 1680 Rocket 3.6 21:33:56 10° NNW 21:39:11 67° ENE 21:44:24 10° SSE
H-2A R/B 4.2 21:38:42 10° E 21:40:47 12° ENE 21:42:53 10° NE
PSLV R/B 4.2 21:38:58 13° SE 21:41:15 29° ENE 21:43:58 10° N
Cosmos 304 Rocket 3.8 21:37:49 10° NNW 21:42:39 77° ENE 21:47:23 10° SSE
SJ-11-01 4.5 21:38:05 10° S 21:42:47 76° WSW 21:47:33 10° NNW
Cosmos 1908 3.3 21:39:28 10° N 21:43:23 83° W 21:47:19 10° S
Cosmos 923 Rocket 4.1 21:38:59 10° NNW 21:44:13 84° WSW 21:49:24 10° SSE
Delta 2 Rocket 3.1 21:42:09 10° WSW 21:45:47 51° S 21:48:40 13° ESE
Cosmos 1674 2.9 21:42:10 10° SSW 21:45:58 74° W 21:49:51 10° N
SPOT 5 3.1 21:41:59 11° SSE 21:46:16 51° ENE 21:50:57 10° N
Cosmos 2151 2.9 21:45:25 10° S 21:49:35 79° E 21:53:49 10° N
Cosmos 1898 Rocket 4.1 21:45:40 10° SSE 21:50:21 36° E 21:55:05 10° NE
YAOGAN 6 3.6 21:50:10 15° SE 21:52:30 30° ENE 21:55:41 10° N
SPOT 1/Viking Rocket 4.4 21:48:49 14° SE 21:52:43 34° ENE 21:57:20 10° N
deb Chang Zheng 4 3.9 21:49:10 10° N 21:53:29 71° WNW 21:57:48 10° SSW
Cosmos 2227 Rocket 3.4 21:55:43 15° SE 21:58:28 21° E 22:02:36 10° NE
Cosmos 2058 2.9 21:55:14 10° S 21:59:15 59° E 22:03:18 10° NNE
Cosmos 2150 Rocket 4.4 21:55:27 10° S 22:00:38 48° ESE 22:05:53 10° NNE
Cosmos 1300 3.2 21:57:48 10° N 22:01:30 43° E 22:03:49 20° SE
SWAS 4.5 21:58:01 10° NNW 22:02:21 85° WSW 22:05:41 17° SSE
Nimbus 7 Rocket 4.4 21:56:40 10° NNE 22:02:33 86° WNW 22:08:25 10° SSW
NOSS 3-1 (A) 3.4 21:58:10 10° SSW 22:03:52 61° ESE 22:10:10 10° NE
Meteor 1-11 4.4 21:59:48 10° S 22:05:27 59° E 22:11:04 10° NNE
Sich 1 3.5 22:03:04 16° SSE 22:06:14 42° E 22:10:23 10° NNE
Cosmos 1437 3.9 22:06:13 10° SSW 22:09:22 44° WNW 22:12:32 10° N
Cosmos 1633 Rocket 3.4 22:08:22 18° SSE 22:11:19 45° E 22:15:30 10° NNE
Cosmos 1151 Rocket 4.1 22:09:19 10° NNW 22:13:25 43° W 22:17:31 10° SSW
Hubble Space Telescope 3.0 22:11:50 10° S 22:12:15 11° S 22:12:15 11° S
SL-16 R/B 4.4 22:11:54 10° NNE 22:14:12 12° NE 22:16:29 10° ENE
USA 245 3.0 22:15:04 31° E 22:15:21 33° ENE 22:17:29 10° N
Cosmos 2333 Rocket 3.4 22:10:54 10° N 22:15:57 30° ENE 22:19:24 17° ESE
MetOp-A 4.1 22:12:19 16° SSE 22:16:39 85° ENE 22:22:01 10° NNW
FALCON 9 R/B 4.5 21:41:02 10° WSW 22:18:43 74° S 22:27:02 10° E
Cosmos 1455 3.9 22:21:07 10° NNE 22:23:47 18° ENE 22:24:28 17° E
Cosmos 1939 Rocket 4.4 22:21:04 10° SSW 22:24:34 30° W 22:28:03 10° NW
ERBS 2.7 22:22:41 18° S 22:24:57 40° SE 22:28:16 10° ENE
Cosmos 2297 Rocket 3.3 22:23:49 22° SE 22:25:14 25° ESE 22:29:42 10° NE
ARGOS 3.3 22:22:16 23° SE 22:25:38 59° ENE 22:30:55 10° N
ATLAS 2AS CENTAUR R/B 3.4 22:19:45 11° S 22:26:12 38° ESE 22:33:22 10° NE
Envisat 3.9 22:22:40 10° S 22:27:31 46° W 22:32:25 10° NNW
Cosmos 1805 Rocket 3.9 22:23:09 10° SSW 22:27:35 67° W 22:32:00 10° N
COSMOS 2428 2.7 22:22:15 10° NNW 22:27:57 85° WSW 22:31:38 23° SSE
Terra 3.2 22:26:41 19° ESE 22:28:37 25° ENE 22:32:30 10° NNE
Cosmos 2219 Rocket 2.5 22:26:21 10° NNW 22:31:49 51° ENE 22:34:43 26° SE
USA 32 4.2 22:29:24 10° N 22:34:36 59° E 22:37:17 28° SSE
Cosmos 1726 2.1 22:33:00 10° N 22:36:48 83° W 22:38:27 32° S
OTV 4 2.3 22:34:34 10° SW 22:35:43 19° SW 22:35:43 19° SW
ATLAS 3B R/B 4.1 22:34:31 10° NNW 22:40:30 29° NE 22:45:16 14° E
SL-08 RB Rocket 3.7 22:38:57 33° SSE 22:40:52 67° ENE 22:45:20 10° N
H-2A R/B 4.3 22:40:33 10° SW 22:44:02 22° W 22:47:32 10° NW
Cosmos 220 Rocket 3.9 22:41:08 20° SSW 22:44:08 83° ESE 22:48:35 10° NNE
OAO 2 Rocket 3.5 22:40:25 10° WSW 22:45:34 52° S 22:48:06 28° ESE
Cosmos 1937 Rocket 3.4 22:42:37 12° SSW 22:47:26 89° E 22:52:39 10° NNE
Cosmos 1707 Rocket 4.3 22:43:33 10° NNW 22:47:46 50° W 22:50:25 21° SSW
Tiangong 1 1.8 22:46:12 10° W 22:49:14 51° NNW 22:51:01 21° NE
NOSS 3-1 (C) 4.3 22:44:21 10° SW 22:50:03 50° NW 22:56:22 10° NNE
Cosmos 1869 4.3 22:46:30 10° NNE 22:50:07 31° ENE 22:50:33 30° E
Cosmos 1666 Rocket 4.3 22:46:31 13° SSW 22:50:20 50° W 22:54:40 10° N
Cosmos 1241 Rocket 4.3 22:45:03 10° SSW 22:51:09 69° ESE 22:57:22 10° NE
Cosmos 1980 4.0 22:47:09 10° NNW 22:52:42 55° ENE 22:55:01 33° SE
Meteor 1-4 Rocket 2.7 22:50:51 10° NNW 22:54:35 71° W 22:55:32 46° SSW
Meteor 2-10 4.2 22:50:09 10° N 22:55:55 80° E 22:58:33 34° SSE
Cosmos 990 Rocket 3.8 22:53:35 25° S 22:56:34 77° ESE 23:01:44 10° NNE
CZ-4C R/B 2.9 22:57:18 65° SE 22:57:40 73° ENE 23:01:08 10° N
CZ-4 R/B 4.0 22:53:03 10° N 22:57:58 73° WNW 23:01:18 20° SSW
Cosmos 1271 Rocket 3.0 22:58:57 10° NNW 23:02:45 62° W 23:03:46 43° SSW
Cosmos 1470 Rocket 3.4 23:02:37 44° S 23:03:57 87° E 23:08:17 10° N
Nadezhda 1 Rocket 3.9 22:58:22 10° N 23:04:29 76° E 23:07:09 36° SSE
Cosmos 2237 Rocket 2.3 22:59:19 10° NNW 23:05:01 64° ENE 23:07:04 39° SE
Cosmos 1933 Rocket 3.5 23:03:37 43° S 23:05:03 85° E 23:09:32 10° N
Cosmos 2082 3.6 23:04:51 23° SSW 23:08:34 83° ESE 23:14:18 10° NNE
Iridium 2 4.0 23:08:26 43° SW 23:09:28 62° W 23:13:17 10° N
Cosmos 1703 4.0 23:07:52 29° SW 23:09:31 50° W 23:13:20 10° N
Cosmos 192 4.5 23:09:49 10° N 23:14:42 60° ENE 23:15:46 48° ESE
Cosmos 1745 Rocket 4.2 23:12:01 22° SSW 23:16:13 69° W 23:22:23 10° N
Cosmos 1626 2.0 23:16:08 77° SSW 23:16:22 86° W 23:20:08 10° N
NOSS 0 Rocket 3.9 23:12:55 10° NNW 23:19:05 76° WSW 23:21:22 41° S
H-2A R/B 2.1 23:17:35 44° SSE 23:19:21 88° WSW 23:24:50 10° NNW
Cosmos 1709 Rocket 4.0 23:22:36 44° SSE 23:24:21 60° E 23:30:21 10° NNE
Cosmos 2221 Rocket 4.5 23:20:15 10° N 23:24:27 35° ENE 23:24:36 35° E
SeaSat 1 4.2 23:26:25 18° E 23:28:11 21° NE 23:31:52 10° N
Lacrosse 4 Rocket 2.3 23:30:16 10° NNW 23:34:27 39° ENE 23:34:52 38° ENE
Cosmos 389 Rocket 4.5 23:33:22 10° NNE 23:35:18 20° NE 23:35:18 20° NE
Cosmos 1125 Rocket 3.4 23:37:09 59° S 23:38:08 77° ESE 23:43:28 10° NNE
Cosmos 1048 Rocket 4.4 23:35:01 10° N 23:40:17 52° ENE 23:41:10 47° ESE
Cosmos 2227 Rocket 3.0 23:37:27 14° SW 23:42:05 50° WNW 23:47:36 10° NNE
CARTOSAT-1 4.2 23:45:15 43° WSW 23:45:40 45° W 23:49:49 10° NNW
Cosmos 1862 Rocket 4.3 23:42:35 10° NNW 23:46:42 42° W 23:47:12 40° WSW
NOSS 2-3 (D) 4.0 23:49:46 58° E 23:49:46 58° E 23:54:46 10° NE
Cosmos 1933 3.5 23:49:28 10° N 23:53:05 69° N 23:53:05 69° N
